| time (UTC) | temp F | wind direction | speed knots | gust knots | rain 1hr in | rain 24hr in | rain mn in | humidity % | barometer mb |
| 20260503212508 | 63 | 211 | 5.2 | 7.0 | 0.00 | 0.00 | 0.00 | 81 | 1016.9 |
| 20260503212012 | 63 | 153 | 6.1 | 7.8 | 0.00 | 0.00 | 0.00 | 81 | 1016.9 |
| 20260503211511 | 63 | 162 | 6.1 | 7.8 | 0.00 | 0.00 | 0.00 | 81 | 1016.6 |
| 20260503211012 | 63 | 193 | 1.7 | 4.3 | 0.00 | 0.00 | 0.00 | 81 | 1016.6 |
| 20260503210508 | 63 | 141 | 3.5 | 4.3 | 0.00 | 0.00 | 0.00 | 81 | 1016.9 |
| 20260503210030 | 63 | 203 | 6.1 | 9.6 | 0.00 | 0.00 | 0.00 | 81 | 1016.6 |
| 20260503205509 | 63 | 175 | 1.7 | 2.6 | 0.00 | 0.00 | 0.00 | 81 | 1016.9 |
| 20260503205012 | 63 | 253 | 3.5 | 6.1 | 0.00 | 0.00 | 0.00 | 81 | 1016.9 |
| 20260503204511 | 63 | 180 | 3.5 | 5.2 | 0.00 | 0.00 | 0.00 | 81 | 1016.9 |
| 20260503204012 | 63 | 103 | 1.7 | 2.6 | 0.00 | 0.00 | 0.00 | 81 | 1017.3 |
| 20260503203509 | 63 | 122 | 0.9 | 1.7 | 0.00 | 0.00 | 0.00 | 80 | 1017.3 |
| 20260503203021 | 63 | 165 | 1.7 | 2.6 | 0.00 | 0.00 | 0.00 | 80 | 1017.3 |
| 20260503202509 | 63 | 193 | 3.5 | 5.2 | 0.00 | 0.00 | 0.00 | 80 | 1017.3 |
| 20260503202012 | 63 | 234 | 2.6 | 3.5 | 0.00 | 0.00 | 0.00 | 80 | 1016.9 |
| 20260503201512 | 63 | 281 | 1.7 | 2.6 | 0.00 | 0.00 | 0.00 | 80 | 1017.3 |
| 20260503201012 | 63 | 223 | 6.1 | 7.8 | 0.00 | 0.00 | 0.00 | 81 | 1017.3 |
| 20260503200509 | 63 | 192 | 4.3 | 6.1 | 0.00 | 0.00 | 0.00 | 81 | 1017.3 |
| 20260503200029 | 63 | 126 | 2.6 | 4.3 | 0.00 | 0.00 | 0.00 | 81 | 1017.3 |
| 20260503195509 | 63 | 207 | 1.7 | 2.6 | 0.00 | 0.00 | 0.00 | 81 | 1017.3 |
| 20260503195012 | 63 | 161 | 2.6 | 3.5 | 0.00 | 0.00 | 0.00 | 81 | 1016.9 |
| 20260503194511 | 63 | 220 | 5.2 | 6.1 | 0.00 | 0.00 | 0.00 | 81 | 1016.9 |
| 20260503194012 | 63 | 236 | 5.2 | 5.2 | 0.00 | 0.00 | 0.00 | 81 | 1017.3 |
| 20260503193508 | 63 | 201 | 2.6 | 3.5 | 0.00 | 0.00 | 0.00 | 81 | 1016.9 |
| 20260503193020 | 63 | 189 | 3.5 | 4.3 | 0.00 | 0.00 | 0.00 | 81 | 1016.9 |
| 20260503192509 | 63 | 178 | 1.7 | 1.7 | 0.00 | 0.00 | 0.00 | 81 | 1016.9 |
| 20260503192012 | 63 | 199 | 0.0 | 0.0 | 0.00 | 0.00 | 0.00 | 81 | 1016.9 |
| 20260503191512 | 63 | 236 | 0.0 | 0.9 | 0.00 | 0.00 | 0.00 | 81 | 1016.9 |
| 20260503191012 | 63 | 118 | 3.5 | 3.5 | 0.00 | 0.00 | 0.00 | 81 | 1016.6 |
| 20260503190508 | 63 | 133 | 1.7 | 2.6 | 0.00 | 0.00 | 0.00 | 81 | 1016.6 |
| 20260503190030 | 63 | 299 | 0.9 | 0.9 | 0.00 | 0.00 | 0.00 | 81 | 1016.9 |
| 20260503185509 | 63 | 203 | 0.9 | 0.9 | 0.00 | 0.00 | 0.00 | 81 | 1016.9 |
| 20260503185012 | 63 | 139 | 0.0 | 0.9 | 0.00 | 0.00 | 0.00 | 81 | 1016.6 |
| 20260503184512 | 63 | 139 | 1.7 | 1.7 | 0.00 | 0.00 | 0.00 | 80 | 1016.6 |
| 20260503184012 | 63 | 37 | 2.6 | 3.5 | 0.00 | 0.00 | 0.00 | 80 | 1016.9 |
| 20260503183509 | 63 | 80 | 0.9 | 1.7 | 0.00 | 0.00 | 0.00 | 79 | 1016.6 |
| 20260503183022 | 63 | 153 | 0.0 | 1.7 | 0.00 | 0.00 | 0.00 | 79 | 1016.6 |
| 20260503182509 | 63 | 159 | 1.7 | 1.7 | 0.00 | 0.00 | 0.00 | 78 | 1016.6 |
| 20260503182012 | 63 | 181 | 1.7 | 2.6 | 0.00 | 0.00 | 0.00 | 78 | 1016.3 |
| 20260503181512 | 64 | 126 | 1.7 | 1.7 | 0.00 | 0.00 | 0.00 | 78 | 1016.6 |
| 20260503181013 | 64 | 186 | 0.0 | 0.9 | 0.00 | 0.00 | 0.00 | 77 | 1016.3 |
| 20260503180509 | 64 | 183 | 0.9 | 1.7 | 0.00 | 0.00 | 0.00 | 77 | 1016.3 |
| 20260503180028 | 64 | 101 | 3.5 | 3.5 | 0.00 | 0.00 | 0.00 | 76 | 1016.6 |
| 20260503175509 | 64 | 178 | 4.3 | 5.2 | 0.00 | 0.00 | 0.00 | 76 | 1016.3 |
| 20260503175012 | 64 | 153 | 1.7 | 2.6 | 0.00 | 0.00 | 0.00 | 75 | 1016.3 |
| 20260503174511 | 64 | 182 | 1.7 | 2.6 | 0.00 | 0.00 | 0.00 | 75 | 1016.6 |
| 20260503174013 | 64 | 163 | 0.9 | 1.7 | 0.00 | 0.00 | 0.00 | 74 | 1016.6 |
| 20260503173508 | 64 | 191 | 2.6 | 3.5 | 0.00 | 0.00 | 0.00 | 73 | 1016.3 |
| 20260503173022 | 64 | 193 | 1.7 | 2.6 | 0.00 | 0.00 | 0.00 | 72 | 1016.3 |
| 20260503172508 | 64 | 152 | 5.2 | 6.1 | 0.00 | 0.00 | 0.00 | 72 | 1016.3 |
| 20260503172012 | 64 | 93 | 1.7 | 2.6 | 0.00 | 0.00 | 0.00 | 72 | 1016.3 |
| 20260503171512 | 66 | 148 | 0.9 | 1.7 | 0.00 | 0.00 | 0.00 | 70 | 1016.3 |
| 20260503171013 | 66 | 149 | 3.5 | 4.3 | 0.00 | 0.00 | 0.00 | 69 | 1016.3 |
| 20260503170508 | 66 | 166 | 1.7 | 3.5 | 0.00 | 0.00 | 0.00 | 70 | 1016.6 |
| 20260503151012 | 70 | 184 | 6.1 | 7.8 | 0.00 | 0.00 | 0.00 | 58 | 1016.6 |
| 20260503150509 | 70 | 327 | 6.1 | 7.8 | 0.00 | 0.00 | 0.00 | 59 | 1016.9 |
| 20260503131012 | 72 | 142 | 4.3 | 7.0 | 0.00 | 0.00 | 0.00 | 58 | 1018.0 |
| 20260503130508 | 70 | 184 | 7.8 | 9.6 | 0.00 | 0.00 | 0.00 | 55 | 1018.0 |
| 20260503110508 | 68 | 102 | 7.8 | 9.6 | 0.00 | 0.00 | 0.00 | 67 | 1018.6 |
| 20260503090509 | 68 | 145 | 5.2 | 9.6 | 0.00 | 0.00 | 0.00 | 67 | 1019.3 |
| 20260503081512 | 64 | 253 | 2.6 | 3.5 | 0.00 | 0.00 | 0.00 | 65 | 1019.0 |
| 20260503081012 | 64 | 144 | 4.3 | 5.2 | 0.00 | 0.00 | 0.00 | 70 | 1019.0 |
| 20260503080509 | 64 | 192 | 3.5 | 4.3 | 0.00 | 0.00 | 0.00 | 71 | 1019.0 |
| 20260503072509 | 66 | 155 | 4.3 | 6.1 | 0.00 | 0.00 | 0.00 | 75 | 1018.6 |
| 20260503072013 | 66 | 162 | 5.2 | 6.1 | 0.00 | 0.00 | 0.00 | 74 | 1019.0 |
| 20260503071512 | 66 | 157 | 6.1 | 6.1 | 0.00 | 0.00 | 0.00 | 73 | 1018.6 |
| 20260503071012 | 66 | 160 | 2.6 | 4.3 | 0.00 | 0.00 | 0.00 | 70 | 1018.6 |
| 20260503070508 | 66 | 158 | 2.6 | 3.5 | 0.00 | 0.00 | 0.00 | 72 | 1019.0 |
| 20260503055011 | 63 | 122 | 1.7 | 1.7 | 0.00 | 0.00 | 0.00 | 73 | 1018.6 |
| 20260503054511 | 64 | 143 | 0.9 | 1.7 | 0.00 | 0.00 | 0.00 | 70 | 1019.0 |
| 20260503054012 | 64 | 123 | 0.9 | 0.9 | 0.00 | 0.00 | 0.00 | 67 | 1019.0 |
| 20260503053508 | 64 | 222 | 0.0 | 0.0 | 0.00 | 0.00 | 0.00 | 69 | 1018.6 |
| 20260503053023 | 63 | 257 | 0.0 | 0.9 | 0.00 | 0.00 | 0.00 | 71 | 1019.0 |
| 20260503052508 | 61 | 124 | 0.0 | 0.9 | 0.00 | 0.00 | 0.00 | 72 | 1018.6 |
| 20260503052012 | 59 | 139 | 0.9 | 1.7 | 0.00 | 0.00 | 0.00 | 74 | 1019.0 |
| 20260503051512 | 57 | 211 | 0.0 | 0.0 | 0.00 | 0.00 | 0.00 | 75 | 1018.6 |
| 20260503051012 | 57 | 223 | 0.0 | 0.0 | 0.00 | 0.00 | 0.00 | 75 | 1018.6 |
| 20260503050509 | 57 | 202 | 0.0 | 0.0 | 0.00 | 0.00 | 0.00 | 76 | 1018.6 |
| 20260503050031 | 55 | 115 | 0.0 | 0.9 | 0.00 | 0.00 | 0.00 | 76 | 1019.0 |
| 20260503045511 | 55 | 216 | 0.0 | 0.0 | 0.00 | 0.00 | 0.00 | 77 | 1019.0 |
| 20260503045012 | 55 | 221 | 0.0 | 0.0 | 0.00 | 0.00 | 0.00 | 78 | 1019.0 |
| 20260503044511 | 54 | 260 | 0.0 | 0.0 | 0.00 | 0.00 | 0.00 | 78 | 1018.6 |
| 20260503044012 | 54 | 250 | 0.0 | 0.0 | 0.00 | 0.00 | 0.00 | 78 | 1019.0 |
| 20260503043508 | 52 | 277 | 0.9 | 1.7 | 0.00 | 0.00 | 0.00 | 78 | 1019.0 |
| 20260503043020 | 52 | 194 | 0.9 | 0.9 | 0.00 | 0.00 | 0.00 | 78 | 1019.0 |
| 20260503042508 | 52 | 183 | 0.9 | 0.9 | 0.00 | 0.00 | 0.00 | 78 | 1018.6 |
| 20260503042012 | 52 | 241 | 0.0 | 0.9 | 0.00 | 0.00 | 0.00 | 78 | 1018.6 |
| 20260503041512 | 52 | 189 | 1.7 | 1.7 | 0.00 | 0.00 | 0.00 | 78 | 1019.0 |
| 20260503041012 | 52 | 175 | 0.9 | 1.7 | 0.00 | 0.00 | 0.00 | 78 | 1018.6 |
| 20260503040508 | 52 | 191 | 0.9 | 0.9 | 0.00 | 0.00 | 0.00 | 78 | 1019.0 |
| 20260503040031 | 52 | 112 | 0.0 | 0.9 | 0.00 | 0.00 | 0.00 | 78 | 1018.6 |
| 20260503035509 | 50 | 94 | 0.9 | 0.9 | 0.00 | 0.00 | 0.00 | 78 | 1018.6 |
| 20260503035012 | 50 | 199 | 0.0 | 0.0 | 0.00 | 0.00 | 0.00 | 78 | 1019.0 |
| 20260503034511 | 50 | 181 | 0.9 | 0.9 | 0.00 | 0.00 | 0.00 | 78 | 1019.0 |
| 20260503034013 | 50 | 175 | 0.0 | 0.9 | 0.00 | 0.00 | 0.00 | 78 | 1018.6 |
| 20260503033508 | 50 | 202 | 0.0 | 0.0 | 0.00 | 0.00 | 0.00 | 77 | 1018.6 |
| 20260503033021 | 50 | 230 | 0.9 | 1.7 | 0.00 | 0.00 | 0.00 | 77 | 1019.0 |
| 20260503032509 | 50 | 178 | 0.0 | 0.0 | 0.00 | 0.00 | 0.00 | 77 | 1018.6 |
| 20260503032012 | 50 | 161 | 0.0 | 0.0 | 0.00 | 0.00 | 0.00 | 77 | 1018.6 |
| 20260503031512 | 50 | 208 | 0.0 | 0.0 | 0.00 | 0.00 | 0.00 | 77 | 1018.6 |
| 20260503031013 | 50 | 185 | 0.0 | 0.0 | 0.00 | 0.00 | 0.00 | 77 | 1018.6 |
| 20260503030508 | 50 | 251 | 1.7 | 1.7 | 0.00 | 0.00 | 0.00 | 77 | 1018.6 |
| 20260503030030 | 50 | 143 | 0.0 | 0.0 | 0.00 | 0.00 | 0.00 | 77 | 1018.6 |
| 20260503025509 | 50 | 227 | 1.7 | 1.7 | 0.00 | 0.00 | 0.00 | 77 | 1019.0 |
| 20260503025012 | 50 | 200 | 0.0 | 0.0 | 0.00 | 0.00 | 0.00 | 77 | 1018.3 |
| 20260503024512 | 50 | 173 | 0.0 | 0.9 | 0.00 | 0.00 | 0.00 | 77 | 1018.6 |
| 20260503024012 | 50 | 218 | 0.0 | 0.9 | 0.00 | 0.00 | 0.00 | 77 | 1018.6 |
| 20260503023508 | 50 | 143 | 0.0 | 0.0 | 0.00 | 0.00 | 0.00 | 77 | 1018.6 |
| 20260503023020 | 50 | 188 | 0.0 | 0.0 | 0.00 | 0.00 | 0.00 | 77 | 1018.6 |
| 20260503022509 | 50 | 225 | 0.9 | 1.7 | 0.00 | 0.00 | 0.00 | 77 | 1018.6 |
| 20260503022012 | 50 | 241 | 0.9 | 1.7 | 0.00 | 0.00 | 0.00 | 77 | 1018.6 |
| 20260503021512 | 50 | 213 | 0.0 | 0.0 | 0.00 | 0.00 | 0.00 | 77 | 1018.6 |
| 20260503021012 | 52 | 210 | 0.0 | 0.0 | 0.00 | 0.00 | 0.00 | 77 | 1018.6 |
| 20260503020509 | 50 | 228 | 0.0 | 0.0 | 0.00 | 0.00 | 0.00 | 77 | 1018.6 |
| 20260503020030 | 50 | 218 | 0.0 | 0.0 | 0.00 | 0.00 | 0.00 | 77 | 1018.6 |
| 20260503015509 | 52 | 225 | 0.0 | 0.0 | 0.00 | 0.00 | 0.00 | 76 | 1018.6 |
| 20260503015012 | 52 | 236 | 0.0 | 0.0 | 0.00 | 0.00 | 0.00 | 76 | 1019.0 |
| 20260503014512 | 52 | 207 | 0.9 | 1.7 | 0.00 | 0.00 | 0.00 | 76 | 1018.6 |
| 20260503014012 | 52 | 236 | 0.0 | 0.0 | 0.00 | 0.00 | 0.00 | 76 | 1019.0 |
| 20260503013508 | 52 | 200 | 0.0 | 0.0 | 0.00 | 0.00 | 0.00 | 76 | 1019.0 |
| 20260503013022 | 52 | 248 | 0.0 | 0.0 | 0.00 | 0.00 | 0.00 | 76 | 1018.6 |
| 20260503012509 | 52 | 190 | 0.9 | 0.9 | 0.00 | 0.00 | 0.00 | 75 | 1019.0 |
| 20260503012012 | 52 | 123 | 0.0 | 0.0 | 0.00 | 0.00 | 0.00 | 75 | 1019.0 |
| 20260503011512 | 52 | 217 | 0.9 | 0.9 | 0.00 | 0.00 | 0.00 | 75 | 1018.6 |
| 20260503011012 | 52 | 223 | 0.9 | 1.7 | 0.00 | 0.00 | 0.00 | 75 | 1019.0 |
| 20260503010509 | 52 | 215 | 0.9 | 1.7 | 0.00 | 0.00 | 0.00 | 74 | 1018.6 |
| 20260503010031 | 52 | 189 | 0.9 | 1.7 | 0.00 | 0.00 | 0.00 | 74 | 1019.0 |
| 20260503005509 | 52 | 204 | 0.0 | 0.0 | 0.00 | 0.00 | 0.00 | 74 | 1019.0 |
| 20260503005011 | 52 | 175 | 0.0 | 0.0 | 0.00 | 0.00 | 0.00 | 73 | 1019.0 |
| 20260503004512 | 52 | 184 | 0.0 | 0.0 | 0.00 | 0.00 | 0.00 | 73 | 1019.0 |
| 20260503004011 | 52 | 245 | 1.7 | 1.7 | 0.00 | 0.00 | 0.00 | 74 | 1019.0 |
| 20260503003508 | 52 | 210 | 0.0 | 0.0 | 0.00 | 0.00 | 0.00 | 74 | 1019.0 |
| 20260503003021 | 52 | 171 | 0.0 | 0.0 | 0.00 | 0.00 | 0.00 | 74 | 1019.0 |
| 20260503002508 | 52 | 199 | 0.0 | 0.0 | 0.00 | 0.00 | 0.00 | 74 | 1019.3 |
| 20260503002012 | 52 | 207 | 0.0 | 0.0 | 0.00 | 0.00 | 0.00 | 73 | 1019.0 |
| 20260503001512 | 52 | 197 | 0.9 | 1.7 | 0.00 | 0.00 | 0.00 | 74 | 1019.3 |
| 20260503001011 | 52 | 129 | 0.0 | 0.0 | 0.00 | 0.00 | 0.00 | 74 | 1019.3 |
| 20260503000508 | 52 | 216 | 0.0 | 0.9 | 0.00 | 0.00 | 0.00 | 74 | 1019.3 |
| 20260503000033 | 52 | 237 | 0.9 | 1.7 | 0.00 | 0.00 | 0.00 | 74 | 1019.3 |
| 20260502235508 | 52 | 213 | 0.0 | 0.0 | 0.00 | 0.00 | 0.00 | 73 | 1019.3 |
| 20260502235011 | 52 | 196 | 0.0 | 0.0 | 0.00 | 0.00 | 0.00 | 73 | 1019.6 |
| 20260502234512 | 52 | 178 | 0.9 | 0.9 | 0.00 | 0.00 | 0.00 | 72 | 1019.6 |
| 20260502234012 | 52 | 210 | 0.0 | 0.0 | 0.00 | 0.00 | 0.00 | 71 | 1019.6 |
| 20260502233509 | 52 | 147 | 0.9 | 0.9 | 0.00 | 0.00 | 0.00 | 71 | 1019.6 |
| 20260502233021 | 54 | 211 | 0.0 | 0.0 | 0.00 | 0.00 | 0.00 | 70 | 1019.6 |
| 20260502232509 | 54 | 200 | 0.0 | 0.9 | 0.00 | 0.00 | 0.00 | 70 | 1019.6 |
| 20260502232013 | 54 | 94 | 0.9 | 0.9 | 0.00 | 0.00 | 0.00 | 70 | 1019.6 |
| 20260502231511 | 54 | 201 | 0.9 | 0.9 | 0.00 | 0.00 | 0.00 | 70 | 1019.6 |
| 20260502231012 | 54 | 190 | 0.9 | 1.7 | 0.00 | 0.00 | 0.00 | 71 | 1020.0 |
| 20260502230509 | 54 | 186 | 0.9 | 1.7 | 0.00 | 0.00 | 0.00 | 71 | 1020.0 |
| 20260502230030 | 54 | 228 | 0.0 | 0.0 | 0.00 | 0.00 | 0.00 | 70 | 1019.6 |
| 20260502225509 | 54 | 181 | 0.0 | 0.0 | 0.00 | 0.00 | 0.00 | 69 | 1020.0 |
| 20260502225012 | 54 | 263 | 0.9 | 0.9 | 0.00 | 0.00 | 0.00 | 68 | 1019.6 |
| 20260502224512 | 54 | 162 | 0.9 | 1.7 | 0.00 | 0.00 | 0.00 | 67 | 1019.6 |
| 20260502224012 | 54 | 136 | 0.9 | 0.9 | 0.00 | 0.00 | 0.00 | 67 | 1020.0 |
| 20260502223508 | 54 | 203 | 0.9 | 1.7 | 0.00 | 0.00 | 0.00 | 67 | 1020.0 |
| 20260502223020 | 54 | 286 | 1.7 | 2.6 | 0.00 | 0.00 | 0.00 | 68 | 1020.0 |
| 20260502222508 | 54 | 141 | 0.9 | 1.7 | 0.00 | 0.00 | 0.00 | 67 | 1020.0 |
| 20260502222012 | 54 | 142 | 0.0 | 0.0 | 0.00 | 0.00 | 0.00 | 67 | 1020.0 |
| 20260502221511 | 54 | 85 | 0.0 | 0.0 | 0.00 | 0.00 | 0.00 | 68 | 1020.0 |
| 20260502221012 | 54 | 256 | 1.7 | 1.7 | 0.00 | 0.00 | 0.00 | 69 | 1020.0 |
| 20260502220509 | 54 | 147 | 0.0 | 0.0 | 0.00 | 0.00 | 0.00 | 69 | 1020.0 |
| 20260502220033 | 54 | 115 | 0.0 | 0.9 | 0.00 | 0.00 | 0.00 | 70 | 1020.0 |
| 20260502215508 | 54 | 181 | 0.9 | 1.7 | 0.00 | 0.00 | 0.00 | 71 | 1020.0 |
| 20260502215012 | 54 | 106 | 0.0 | 0.9 | 0.00 | 0.00 | 0.00 | 72 | 1020.0 |
| 20260502214511 | 55 | 151 | 0.9 | 0.9 | 0.00 | 0.00 | 0.00 | 74 | 1020.0 |
| 20260502214012 | 55 | 183 | 0.9 | 0.9 | 0.00 | 0.00 | 0.00 | 75 | 1019.6 |
| 20260502213509 | 55 | 205 | 0.9 | 1.7 | 0.00 | 0.00 | 0.00 | 75 | 1019.6 |
| 20260502213021 | 54 | 282 | 0.9 | 0.9 | 0.00 | 0.00 | 0.00 | 75 | 1020.0 |